{"data":{"norad_id":61536,"intl_designator":"2024-184E","name":"STARLINK-11295 [DTC]","alt_names":[],"object_type":"PAYLOAD","status":"ACTIVE","operator":null,"country":"US","launch_date":"2024-10-15","launch_site_code":"AFWTR","launch_vehicle":null,"mission":null,"orbit_class":"UNKNOWN","rcs_meters":null,"size_class":null,"mass_kg":null,"dimensions":null,"purposes":["comms"],"wikipedia_slug":null,"has_3d_model":false,"image_url":null,"decayed_at":null,"tle_current":{"epoch":"2026-05-24T22:26:12.826752Z","epoch_age_seconds":74616,"freshness":"FRESH","line1":"1 61536U 24184E   26144.93487068  .00000694  00000+0  10587-4 0  9995","line2":"2 61536  53.1589 220.3175 0001106  80.8919 279.2224 15.69707818 92390","mean_motion":15.69707818,"eccentricity":0.0001106,"inclination_deg":53.1589,"raan_deg":220.3175,"arg_perigee_deg":80.8919,"mean_anomaly_deg":279.2224,"bstar":1.0587e-5,"rev_number":9239,"period_min":91.736817736866,"perigee_km":358.9877860544,"apogee_km":360.47820289718,"semimajor_km":6737.8699944758,"source":"CELESTRAK","updated_at":"2026-05-25T13:38:19.397864Z"}}}